Location: Amberg
(48.0613°N, 10.6820°E)
Time: 05:25:24
(UTC+00:00)

Aureole 3 Rocket - Pass Details

Date: 18 November 2025
Orbit: 398 x 1690 km, 82.5° (Epoch: 10 December)

Event Time Altitude Azimuth Distance (km) Brightness Sun altitude
Rises 16:55:14 0° 180° (S) 2,319 6.2 -13.1°
Reaches altitude 10° 16:57:13 10° 176° (S) 1,444 5.1 -13.4°
Maximum altitude 17:00:11 59° 96° (E) 477 2.2 -13.9°
Drops below altitude 10° 17:03:25 10° 16° (NNE) 1,574 4.9 -14.4°
Enters shadow 17:03:34 - 16° (NNE) 1,643 5.0 -14.5°
